Location: *
(45.9500°N, 9.0833°E)
Time: 20:50:13
(UTC+00:00)

Tiros 1 - Pass Details

Date: 18 June 2021
Orbit: 630 x 664 km, 48.4° (Epoch: 05 August)

Event Time Altitude Azimuth Distance (km) Brightness Sun altitude
Rises 13:45:17 0° 283° (WNW) 2,946 10.9 53.9°
Reaches altitude 10° 13:47:37 10° 286° (WNW) 2,041 10.3 53.5°
Maximum altitude 13:52:19 72° 11° (N) 686 8.0 52.8°
Drops below altitude 10° 13:57:04 10° 95° (E) 2,060 9.5 52.0°
Sets 13:59:26 0° 98° (E) 2,976 10.2 51.6°
